Mason City, IA

2:20 AM CDT on May 29, 2017 (GMT -0500)
Mason City Municipal

Weather History for KMCW - March, 2014

Change the Weather History Date:

Monday, March 24, 2014

  Actual Average Record
Temperature  
Mean Temperature 25 °F 36 °F  
Max Temperature 33 °F 46 °F 77 °F (1963)
Min Temperature 17 °F 27 °F -6 °F (1974)
Degree Days  
Heating Degree Days 40 28  
Month to date heating degree days 989 806  
Since 1 July heating degree days 7535 6657  
Cooling Degree Days 0 0  
Month to date cooling degree days 0 0  
Year to date cooling degree days 0 0  
Moisture  
Dew Point 22 °F    
Average Humidity 80    
Maximum Humidity 92    
Minimum Humidity 68    
Precipitation  
Precipitation 0.09 in 0.08 in 1.29 in (1996)
Month to date precipitation 0.65 1.58  
Year to date precipitation 3.67 3.40  
Snow  
Snow 1.30 in 0.20 in 9.00 in (1932)
Month to date snowfall 6.8 4.9  
Since 1 July snowfall 52.9 37.4  
Snow Depth T in    
Sea Level Pressure  
Sea Level Pressure 30.26 in    
Wind  
Wind Speed 10 mph (SW)    
Max Wind Speed 21 mph    
Max Gust Speed 28 mph    
Visibility 4 miles    
Events Fog , Snow    
T = Trace of Precipitation, MM = Missing Value Source: NWS Daily Summary

Daily Weather History Graph

Daily Weather History Graph

Search for Another Location

Airport or City:

Trip Planner

Search our weather history database for the weather conditions in past years. The results will help you decide how hot, cold, wet, or windy it might be!

Date:

Astronomy

Mar. 24, 2014 Rise Set
Actual Time 7:09 AM CDT 7:30 PM CDT
Civil Twilight 6:40 AM CDT 7:58 PM CDT
Nautical Twilight 6:07 AM CDT 8:32 PM CDT
Astronomical Twilight 5:33 AM CDT 9:06 PM CDT
Moon 2:48 AM CDT (3/24) 12:47 PM CDT (3/24)
Length of Visible Light 13h 17m
Length of Day
12h 21m
Last Quarter, 43% of the Moon is Illuminated
Mar 24
Last Quarter
Mar 30
New
Apr 7
First Quarter
Apr 15
Full
Apr 22
Last Quarter

Hourly Weather History & Observations

Time (CDT) Temp. Windchill Dew Point Humidity Pressure Visibility Wind Dir Wind Speed Gust Speed Precip Events Conditions
12:53 AM 23.0 °F 14.7 °F 16.0 °F 74% 30.40 in 10.0 mi SW 6.9 mph - N/A   Overcast
1:53 AM 24.1 °F 18.2 °F 16.0 °F 71% 30.39 in 10.0 mi SSW 4.6 mph - N/A   Overcast
2:53 AM 24.1 °F 18.2 °F 17.1 °F 75% 30.37 in 8.0 mi SW 4.6 mph - N/A   Overcast
3:53 AM 24.1 °F 18.2 °F 17.1 °F 75% 30.38 in 10.0 mi South 4.6 mph - N/A   Overcast
4:53 AM 23.0 °F 15.8 °F 19.9 °F 88% 30.36 in 4.0 mi SSE 5.8 mph - 0.00 in Snow Light Snow
5:25 AM 23.0 °F 15.8 °F 19.9 °F 88% 30.31 in 4.0 mi South 5.8 mph - 0.00 in   Overcast
5:53 AM 21.9 °F 14.5 °F 19.9 °F 92% 30.35 in 3.0 mi South 5.8 mph - 0.00 in   Overcast
6:42 AM 21.9 °F 15.7 °F 19.9 °F 92% 30.31 in 2.5 mi South 4.6 mph - 0.00 in Snow Light Snow
6:53 AM 21.9 °F 14.5 °F 19.9 °F 92% 30.35 in 4.0 mi SSE 5.8 mph - 0.00 in Snow Light Snow
7:23 AM 21.9 °F 11.7 °F 21.0 °F 96% 30.31 in 6.0 mi South 9.2 mph - 0.00 in   Overcast
7:41 AM 23.0 °F 13.1 °F 21.0 °F 92% 30.31 in 1.8 mi South 9.2 mph - 0.00 in Snow Light Snow
7:53 AM 23.0 °F 13.1 °F 21.0 °F 92% 30.35 in 1.8 mi South 9.2 mph - 0.00 in Snow Light Snow
8:08 AM 23.0 °F 13.1 °F 21.0 °F 92% 30.30 in 1.5 mi South 9.2 mph - 0.00 in Snow Light Snow
8:18 AM 23.0 °F 13.9 °F 21.0 °F 92% 30.30 in 2.0 mi South 8.1 mph - 0.00 in Snow Light Snow
8:30 AM 23.0 °F 12.4 °F 21.0 °F 92% 30.30 in 1.8 mi South 10.4 mph - 0.00 in Snow Light Snow
8:41 AM 23.0 °F 12.4 °F 21.0 °F 92% 30.29 in 2.0 mi South 10.4 mph - 0.00 in Snow Light Snow
8:48 AM 24.8 °F 15.3 °F 21.2 °F 86% 30.29 in 1.5 mi South 9.2 mph - 0.00 in Snow Light Snow
8:53 AM 24.1 °F 14.4 °F 21.0 °F 88% 30.33 in 1.5 mi South 9.2 mph - 0.00 in Snow Light Snow
9:05 AM 25.0 °F 15.5 °F 21.9 °F 88% 30.29 in 1.8 mi South 9.2 mph - 0.00 in Snow Light Snow
9:13 AM 24.1 °F 13.7 °F 21.0 °F 88% 30.29 in 2.5 mi South 10.4 mph - 0.00 in Snow Light Snow
9:25 AM 24.1 °F 14.4 °F 21.0 °F 88% 30.29 in 4.0 mi South 9.2 mph - 0.00 in Snow Light Snow
9:47 AM 24.8 °F 16.1 °F 21.2 °F 86% 30.29 in 1.8 mi South 8.1 mph - 0.00 in Snow Light Snow
9:53 AM 24.1 °F 15.2 °F 21.9 °F 91% 30.33 in 1.5 mi South 8.1 mph - 0.00 in Snow Light Snow
10:06 AM 24.1 °F 15.2 °F 21.9 °F 91% 30.29 in 1.0 mi South 8.1 mph - 0.00 in Snow Light Snow
10:53 AM 26.1 °F 17.6 °F 24.1 °F 92% 30.32 in 1.2 mi South 8.1 mph - 0.00 in Snow Light Snow
11:26 AM 27.0 °F 18.7 °F 25.0 °F 92% 30.28 in 1.2 mi SW 8.1 mph - 0.00 in Snow Light Snow
11:53 AM 28.0 °F 20.0 °F 25.0 °F 88% 30.31 in 1.2 mi SW 8.1 mph - 0.00 in Snow Light Snow
12:04 PM 28.0 °F 19.3 °F 25.0 °F 88% 30.27 in 1.2 mi SW 9.2 mph - 0.00 in Snow Light Snow
12:18 PM 28.0 °F 19.3 °F 26.1 °F 92% 30.26 in 1.2 mi SW 9.2 mph - 0.00 in Snow Light Snow
12:53 PM 28.9 °F 19.8 °F 25.0 °F 85% 30.29 in 1.2 mi SW 10.4 mph - 0.00 in Snow Light Snow
1:02 PM 28.9 °F 19.8 °F 26.1 °F 89% 30.25 in 2.0 mi WSW 10.4 mph - 0.00 in Snow Light Snow
1:24 PM 28.9 °F 19.2 °F 26.1 °F 89% 30.24 in 2.5 mi WSW 11.5 mph - 0.00 in Snow Light Snow
1:32 PM 28.9 °F 18.6 °F 26.1 °F 89% 30.24 in 3.0 mi WSW 12.7 mph - 0.00 in Snow Light Snow
1:45 PM 30.9 °F 19.8 °F 27.0 °F 85% 30.23 in 7.0 mi SW 16.1 mph - 0.00 in   Overcast
1:53 PM 30.0 °F 19.1 °F 25.0 °F 82% 30.26 in 9.0 mi WSW 15.0 mph - 0.00 in   Overcast
2:53 PM 30.0 °F 19.5 °F 25.0 °F 82% 30.23 in 10.0 mi SW 13.8 mph - N/A   Overcast
3:53 PM 33.1 °F 23.4 °F 26.1 °F 75% 30.19 in 10.0 mi WSW 13.8 mph 17.3 mph N/A   Scattered Clouds
4:45 PM 30.9 °F 21.2 °F 25.0 °F 79% 30.14 in 2.5 mi WSW 12.7 mph - 0.00 in Snow Light Snow
4:50 PM 30.2 °F 18.9 °F 26.6 °F 86% 30.15 in 0.8 mi West 16.1 mph - 0.00 in Snow Light Snow
4:53 PM 30.0 °F 18.7 °F 27.0 °F 88% 30.18 in 0.8 mi West 16.1 mph - 0.00 in Snow Light Snow
5:00 PM 30.0 °F 18.3 °F 28.0 °F 92% 30.14 in 1.0 mi WNW 17.3 mph 24.2 mph 0.00 in Snow Light Snow
5:07 PM 30.0 °F 18.7 °F 28.0 °F 92% 30.15 in 0.5 mi WNW 16.1 mph - 0.00 in Fog , Snow Snow
5:16 PM 30.0 °F 18.3 °F 28.0 °F 92% 30.14 in 1.0 mi WNW 17.3 mph - 0.00 in Snow Light Snow
5:21 PM 30.0 °F 19.1 °F 27.0 °F 88% 30.14 in 3.0 mi WNW 15.0 mph - 0.00 in Snow Light Snow
5:46 PM 30.0 °F 18.7 °F 26.1 °F 85% 30.14 in 6.0 mi NW 16.1 mph - 0.00 in   Overcast
5:53 PM 30.0 °F 19.1 °F 26.1 °F 85% 30.18 in 10.0 mi NW 15.0 mph - 0.00 in   Overcast
6:53 PM 30.0 °F 19.1 °F 21.0 °F 69% 30.17 in 10.0 mi NW 15.0 mph - N/A   Scattered Clouds
7:53 PM 28.0 °F 15.7 °F 19.9 °F 72% 30.18 in 10.0 mi NW 17.3 mph 27.6 mph N/A   Scattered Clouds
8:53 PM 27.0 °F 13.9 °F 18.0 °F 69% 30.18 in 10.0 mi NW 18.4 mph - N/A   Mostly Cloudy
9:53 PM 25.0 °F 15.5 °F 18.0 °F 75% 30.19 in 10.0 mi NW 9.2 mph - N/A   Clear
10:53 PM 19.0 °F 10.0 °F 15.1 °F 85% 30.19 in 10.0 mi WNW 6.9 mph - N/A   Clear
11:53 PM 17.1 °F 6.6 °F 14.0 °F 88% 30.18 in 10.0 mi West 8.1 mph - N/A   Clear